SCP
2 2 2 1 1 1 1 1 1 1 1 2 2 1 1 1 1 1 0 0 0 0 0 0 0 0 0 0 0 0 0 0 0 0 0 0 0 0 0 0 0 0 0
2 2 2 2 1 1 1 1 1 1 2 2 2 1 1 1 1 1 1 0 0 0 0 0 0 0 0 0 0 0 0 0 0 0 0 0 0 0 1 1 0 0 0
2 2 2 2 1 1 1 1 1 1 2 2 2 1 1 1 1 1 1 1 1 0 0 0 0 1 1 1 0 0 0 0 0 0 0 0 0 1 1 1 1 1 0
2 2 2 2 2 1 1 1 1 1 2 1 1 1 1 1 1 1 1 1 1 1 0 0 1 1 1 1 0 0 0 0 0 0 1 1 1 1 1 1 1 1 1
2 2 2 2 2 2 2 1 1 1 1 1 1 1 1 1 1 1 1 1 1 1 1 0 1 1 1 0 0 0 0 0 0 0 0 1 1 1 1 1 1 1 1
2 2 2 2 2 2 2 2 2 2 1 1 1 1 1 1 1 1 1 1 1 1 1 0 0 0 0 0 0 0 0 0 0 0 0 0 1 1 1 1 1 1 1
2 2 2 2 2 2 2 2 2 2 2 1 1 1 1 1 0 0 0 0 1 1 0 0 0 0 0 0 0 0 0 0 0 0 0 0 0 1 1 1 1 1 1
2 2 2 2 2 2 2 2 2 2 2 1 1 1 1 1 0 0 0 0 0 0 0 0 0 0 0 0 0 0 0 0 0 0 0 0 0 0 0 0 0 0 0
2 2 2 2 2 2 2 2 2 2 2 1 1 1 1 1 0 0 0 0 0 0 0 0 0 0 0 0 0 0 0 0 0 0 0 0 0 0 0 0 0 0 0
2 2 2 2 2 2 2 2 2 2 2 2 1 1 1 1 1 0 0 0 0 0 0 0 0 0 0 0 0 0 0 0 0 0 0 0 0 0 0 0 0 0 0
2 2 2 2 2 2 2 2 2 2 2 2 1 1 1 1 1 0 0 0 0 0 0 0 0 0 0 0 0 0 0 0 0 0 0 0 0 0 0 0 0 0 0
2 2 2 2 2 2 2 2 2 2 2 2 1 1 1 1 1 0 0 0 0 0 0 0 0 0 0 0 0 0 0 0 0 0 0 0 0 0 0 0 0 1 1
3 3 2 2 2 2 2 2 2 2 2 1 1 1 1 1 1 1 0 0 0 0 0 0 0 0 0 0 0 0 0 0 0 0 0 0 0 0 0 0 1 1 1
3 3 3 2 2 2 2 2 2 1 1 1 1 1 1 1 1 1 0 0 0 0 0 0 0 0 0 0 0 0 0 0 0 0 0 0 0 0 0 0 1 1 1
3 3 3 2 2 2 2 1 1 1 1 1 1 1 1 1 1 1 1 0 0 0 0 0 0 0 0 0 0 0 0 0 0 0 0 0 0 0 0 0 1 1 0
3 2 2 2 2 2 2 1 1 1 1 1 1 1 1 1 0 0 0 0 0 0 0 0 0 0 0 0 0 0 0 0 0 0 0 0 0 0 0 0 0 0 0
2 2 2 1 1 1 1 1 1 1 1 0 0 0 0 0 0 0 0 0 0 0 0 1 1 1 1 0 0 0 0 0 0 0 0 0 0 0 0 0 0 0 0
1 1 1 1 1 1 1 1 1 1 1 1 0 0 0 0 0 0 0 0 0 0 1 1 1 1 1 1 0 0 0 0 0 0 0 0 0 0 0 0 0 0 0
1 1 1 1 1 1 1 1 1 1 1 1 1 0 0 0 0 0 0 0 0 1 1 1 1 1 1 1 0 0 0 0 0 0 0 0 0 0 0 0 0 0 0
1 1 1 1 1 1 1 1 1 1 1 1 1 1 0 0 0 0 0 0 1 1 1 1 1 1 1 1 0 0 0 0 0 0 0 0 0 0 0 0 0 0 0
1 1 1 1 1 1 1 1 1 1 1 1 1 1 1 0 0 0 0 0 1 1 1 1 1 1 1 1 0 0 0 0 0 0 0 0 0 0 0 0 0 0 0
1 1 1 1 1 1 1 1 1 1 1 1 1 1 1 1 1 1 1 1 1 1 1 1 1 1 1 0 0 0 0 0 0 0 0 0 0 0 0 0 0 0 0
1 1 1 1 1 1 1 1 1 1 1 1 1 1 1 1 1 1 1 1 1 1 1 1 1 1 0 0 0 0 0 0 0 0 0 0 0 0 0 0 0 0 0
1 1 1 1 1 1 1 1 1 1 1 1 1 1 1 1 1 1 1 1 1 1 1 1 0 0 0 0 0 0 0 0 0 0 0 0 0 0 0 0 0 0 0
1 1 1 1 1 1 1 1 1 1 1 1 1 1 1 1 1 1 1 1 1 1 1 0 0 0 0 0 0 0 0 0 0 0 0 0 0 0 0 0 0 0 0
1 1 1 1 1 1 1 1 1 1 1 1 1 1 1 1 1 1 1 1 1 1 0 0 0 0 0 0 0 0 0 0 0 0 0 0 0 0 0 0 0 0 0
Wind_Speed
9 8 8 8 7 6 5 4 5 4 4 4 5 5 4 4 4 3 3 3 3 3 3 2 2 2 2 2 2 1 1 1 2 2 0 1 1 1 2 2 3 4 5
8 7 7 7 7 8 7 5 4 5 5 5 4 4 5 4 4 4 4 4 4 3 3 2 2 2 2 2 2 2 1 1 1 2 2 1 2 2 3 3 4 4 4
8 8 7 7 7 6 6 6 5 5 5 5 4 5 4 4 4 4 4 3 3 3 3 3 3 2 2 2 2 2 2 2 1 2 2 2 1 1 1 3 3 2 3
7 7 7 7 6 6 5 5 5 5 5 5 4 4 4 4 4 4 4 4 4 3 3 3 3 3 2 3 3 2 3 3 2 2 2 1 1 1 1 2 2 2 2
6 7 6 6 6 5 5 4 5 5 6 5 4 4 4 4 4 4 4 5 4 4 3 3 3 2 2 2 2 2 2 2 2 2 2 2 1 1 1 2 2 1 2
6 6 5 5 5 5 5 6 5 5 5 4 5 5 5 4 4 5 4 4 4 4 4 3 3 3 4 4 3 3 3 4 3 3 2 2 2 2 1 2 2 2 2
6 5 6 5 5 5 6 6 6 5 5 5 5 5 5 4 4 4 4 4 4 4 4 3 4 3 3 2 3 4 5 6 6 4 4 4 3 2 2 2 2 2 3
6 5 5 5 5 5 5 5 5 5 5 5 5 5 5 5 5 5 5 5 4 4 3 3 3 2 2 2 3 4 4 4 5 4 4 4 3 2 2 3 3 4 3
6 5 5 5 5 5 5 5 4 5 5 5 5 5 5 5 6 6 6 4 4 4 4 4 3 3 3 3 3 4 4 3 3 3 4 5 5 5 3 2 2 2 3
5 5 5 5 5 5 5 5 4 4 5 5 5 5 5 5 7 8 7 4 4 4 3 4 5 4 3 3 3 3 4 4 3 3 4 5 5 5 6 4 3 3 3
4 4 4 4 5 5 4 4 4 4 5 5 5 5 5 6 7 9 9 5 4 3 3 3 3 5 5 5 4 4 4 4 3 4 3 3 3 3 3 4 3 3 3
2 3 3 3 4 5 5 4 4 5 5 5 5 5 4 5 6 8 10 9 5 3 3 2 1 4 4 5 4 4 4 4 3 3 3 3 3 3 3 3 3 4 4
0 2 3 3 3 3 4 5 5 5 5 5 5 5 4 4 5 7 9 9 8 4 3 2 2 4 4 4 6 5 4 3 3 3 3 3 2 2 2 2 2 3 3
1 2 3 3 3 3 3 4 4 4 5 4 4 4 3 3 3 4 4 5 6 5 4 3 4 6 5 4 3 4 4 4 4 4 3 3 2 1 2 2 2 2 3
2 2 3 3 4 3 4 3 4 3 4 4 4 3 3 3 4 5 5 4 4 3 3 2 2 3 3 3 3 3 4 4 4 4 3 3 2 2 2 2 2 2 3
3 3 3 3 3 4 4 4 4 5 5 5 4 3 2 3 5 7 6 5 4 4 3 3 4 4 4 3 3 4 4 4 4 4 4 3 3 3 3 2 2 3 3
4 4 3 3 3 3 4 4 4 4 4 5 6 5 5 4 5 6 5 4 4 5 4 4 4 4 3 3 3 3 4 4 3 3 3 3 3 3 3 2 2 2 2
6 5 4 4 3 4 4 4 4 5 4 4 5 8 8 7 6 6 5 4 3 4 5 5 4 3 3 3 3 3 2 2 2 2 3 3 3 3 3 3 2 2 2
6 5 4 4 4 4 4 4 5 5 4 4 3 4 7 7 5 6 7 5 6 5 5 5 4 3 3 3 2 2 2 2 2 2 2 2 2 2 2 2 2 3 3
5 7 6 5 5 4 4 5 4 4 4 4 4 4 5 4 4 5 6 6 6 5 5 5 4 3 3 3 3 3 2 2 2 2 2 2 2 2 2 3 2 2 2
5 5 7 6 6 5 4 4 3 3 4 3 4 4 7 5 6 6 6 7 6 6 5 4 3 3 3 3 3 3 3 2 2 2 2 2 2 1 1 2 2 2 2
5 5 5 6 5 4 4 4 4 4 5 5 3 4 8 6 5 5 5 5 6 5 5 4 4 3 2 2 2 2 2 1 1 1 1 1 1 1 1 2 2 2 2
6 6 6 5 5 4 5 5 5 5 4 4 3 3 5 5 4 4 4 3 4 4 4 3 3 2 1 1 1 1 1 1 1 0 0 1 1 1 1 2 2 2 2
6 6 6 5 4 4 5 4 4 5 4 3 3 3 4 3 4 3 2 2 2 2 1 1 1 2 2 1 1 1 0 0 0 1 0 1 2 1 2 2 2 3 2
6 5 5 4 3 4 4 4 4 3 3 3 3 2 3 3 3 2 2 1 2 2 2 1 1 2 2 2 2 2 3 3 1 0 1 2 2 2 2 2 2 3 3
6 5 4 4 4 4 3 3 3 3 3 2 2 2 2 3 2 2 2 2 2 2 2 2 2 2 3 2 3 4 4 3 2 2 1 1 1 1 2 2 3 2 2
Wind_Direction
179 179 181 181 189 189 191 191 186 184 176 174 174 173 176 178 188 203 221 201 211 228 242 227 231 263 305 307 301 290 283 274 269 282 277 202 213 234 192 215 200 199 197
173 174 180 182 184 187 191 194 188 181 180 179 182 181 189 187 194 202 223 221 215 219 231 242 246 246 254 287 305 302 291 276 259 277 284 255 238 218 200 230 229 218 194
170 177 180 184 187 189 190 185 186 186 182 183 186 192 198 192 197 207 217 227 229 227 224 234 244 254 264 266 277 287 291 286 253 254 262 250 242 243 216 250 258 250 225
170 176 180 184 182 185 184 182 185 185 183 186 194 199 200 196 200 206 216 217 222 227 225 227 231 232 244 263 262 273 283 287 277 268 266 265 258 257 233 254 263 257 247
166 175 176 180 177 178 175 182 184 191 191 187 191 202 209 202 208 206 221 220 215 224 227 225 222 210 219 246 268 287 290 286 282 275 268 265 266 291 275 273 276 261 246
166 173 169 173 174 172 173 178 186 191 189 188 193 200 215 218 203 201 218 229 216 218 228 232 220 210 218 221 244 262 262 266 280 282 277 277 270 271 277 284 285 297 284
169 172 168 172 174 176 182 177 181 188 188 193 200 202 202 203 205 199 216 235 234 229 228 231 246 224 198 219 240 246 248 242 237 255 273 282 286 299 301 290 290 286 268
170 174 170 175 179 177 180 180 182 185 190 198 205 205 195 201 206 202 213 225 237 237 229 229 237 243 243 246 249 247 242 236 233 234 256 273 279 284 276 266 266 269 264
180 182 179 181 182 183 189 188 189 191 197 201 201 205 202 196 200 201 200 219 228 232 229 229 222 222 233 241 257 259 256 253 245 243 243 249 257 263 254 276 279 282 282
187 187 182 185 187 186 192 192 195 199 204 205 207 208 206 201 197 196 195 219 232 233 229 222 220 216 216 219 237 256 259 265 262 254 254 253 247 243 230 224 239 253 271
188 185 188 192 194 186 189 196 199 207 208 212 212 211 206 203 194 194 195 214 232 239 240 234 213 190 201 221 230 249 257 270 273 258 253 246 231 232 220 213 218 225 244
194 184 188 199 214 192 188 197 203 209 216 217 213 217 213 196 191 199 201 214 234 244 258 260 195 175 199 222 230 249 261 273 264 257 256 254 243 237 228 214 214 221 228
216 201 204 207 208 189 197 200 206 209 217 221 216 215 215 199 185 190 198 210 224 235 261 272 225 209 212 220 236 245 248 248 251 253 251 249 247 243 226 216 215 221 235
248 219 218 213 214 192 207 212 217 217 219 220 222 221 216 197 178 176 195 209 220 232 255 253 219 217 229 241 235 229 230 234 234 246 252 250 242 226 230 226 230 220 231
252 241 239 231 214 202 208 218 217 218 214 216 225 221 217 214 199 182 186 196 204 208 216 217 221 216 221 225 225 223 226 226 230 237 246 250 244 236 234 229 233 236 245
249 244 247 242 224 217 212 218 223 219 207 202 206 212 203 196 175 173 176 176 182 172 187 223 230 230 229 226 228 227 225 224 228 231 234 233 235 235 239 234 228 233 242
266 256 255 257 247 234 223 220 223 217 212 205 201 202 207 198 184 177 178 178 181 167 201 231 237 237 234 227 237 242 232 221 220 229 232 230 229 237 242 240 233 240 243
264 260 253 252 256 254 250 243 237 225 213 210 205 203 198 199 197 187 167 153 197 203 222 234 235 230 226 229 240 249 248 228 220 232 237 238 231 230 240 237 229 237 244
259 262 258 257 253 251 255 257 252 237 225 207 184 185 195 191 192 189 175 203 220 221 225 230 233 226 224 225 232 243 238 231 230 234 246 249 247 245 249 250 231 230 241
250 257 257 260 259 252 244 244 244 241 232 217 205 193 165 171 190 191 203 218 229 234 237 236 231 225 219 228 234 235 233 223 218 225 238 239 244 255 256 256 250 237 233
251 250 248 255 253 251 250 247 249 252 248 235 227 193 178 199 206 201 205 212 220 230 235 238 232 227 226 226 233 229 231 229 216 215 216 226 239 248 260 267 266 260 261
260 250 240 244 249 250 253 253 250 248 246 237 225 192 187 210 217 214 215 210 215 220 224 227 231 228 226 223 223 222 236 247 253 260 252 253 241 246 249 255 264 263 249
266 261 250 242 244 247 249 251 251 247 242 233 221 196 198 222 231 223 224 223 217 213 212 215 219 211 221 215 179 160 217 243 238 123 330 309 306 300 287 273 266 274 269
272 272 269 262 250 250 257 260 258 259 250 234 226 210 210 222 236 235 233 233 231 226 205 195 202 203 195 178 162 144 129 118 130 119 201 268 276 283 289 290 285 283 284
276 276 275 267 259 253 252 257 258 263 263 258 240 227 229 225 234 235 228 228 226 225 213 196 200 206 205 190 158 131 123 117 118 128 248 256 258 263 273 273 270 274 278
275 271 265 262 256 256 257 258 260 262 257 256 242 220 225 229 227 220 214 218 219 214 205 194 196 189 178 180 143 140 143 144 156 184 234 248 260 265 281 277 272 268 263